OK2ARM-12 Weather Reports


Display with metric or nautical units.
time (UTC)temp
F
wind
direction
speed
MPH
gust
MPH
rain 1hr
in
rain 24hr
in
rain mn
in
humidity
%
barometer
mb
20260510064321 51 0.0 0.0 0.00 0.00 0.00 60 1016.8
20260510063321 50 0.0 0.0 0.00 0.00 0.00 60 1016.9
20260510062322 50 0.0 0.0 0.00 0.00 0.00 62 1017.0
20260510060058 49 0.0 0.0 0.00 0.00 0.00 66 1017.1
20260510055059 48 0.0 0.0 0.00 0.00 0.00 70 1017.0
20260510054058 47 0.0 0.0 0.00 0.00 0.00 72 1017.0
20260510051834 45 0.0 0.0 0.00 0.00 0.00 75 1017.0
20260510050834 45 0.0 0.0 0.00 0.00 0.00 76 1016.9
20260510045834 45 0.0 0.0 0.00 0.00 0.00 75 1017.0
20260510044834 45 0.0 0.0 0.00 0.00 0.00 78 1017.3
20260510043834 44 0.0 0.0 0.00 0.00 0.00 79 1017.4
20260510042834 43 0.0 0.0 0.00 0.00 0.00 81 1017.3
20260510040609 43 0.0 0.0 0.00 0.00 0.00 80 1017.3
20260510035610 43 0.0 0.0 0.00 0.00 0.00 83 1017.3
20260510034610 43 0.0 0.0 0.00 0.00 0.00 82 1017.4
20260510033609 43 0.0 0.0 0.00 0.00 0.00 83 1017.5
20260510032610 43 0.0 0.0 0.00 0.00 0.00 84 1017.6
20260510031609 42 0.0 0.0 0.00 0.00 0.00 86 1017.6
20260510030610 41 0.0 0.0 0.00 0.00 0.00 87 1017.4
20260510025609 42 0.0 0.0 0.00 0.00 0.00 86 1017.3
20260510024610 42 0.0 0.0 0.00 0.00 0.00 85 1017.4
20260510023609 42 0.0 0.0 0.00 0.00 0.00 86 1017.5
20260510022610 42 0.0 0.0 0.00 0.00 0.00 87 1017.5
20260510021609 42 0.0 0.0 0.00 0.00 0.00 86 1017.6
20260510020610 42 0.0 0.0 0.00 0.00 0.00 85 1017.5
20260510015609 42 0.0 0.0 0.00 0.00 0.00 85 1017.6
20260510014610 42 0.0 0.0 0.00 0.00 0.00 84 1017.9
20260510013609 43 0.0 0.0 0.00 0.00 0.00 83 1018.0
20260510012609 43 0.0 0.0 0.00 0.00 0.00 82 1017.9
20260510011609 43 0.0 0.0 0.00 0.00 0.00 82 1017.9
20260510005346 44 0.0 0.0 0.00 0.00 0.00 81 1018.2
20260510003122 44 0.0 0.0 0.00 0.00 0.00 81 1018.4
20260510002122 44 0.0 0.0 0.00 0.00 0.00 80 1018.4
20260510001122 44 0.0 0.0 0.00 0.00 0.00 80 1018.5
20260510000122 44 0.0 0.0 0.00 0.00 0.00 79 1018.6
20260509235122 44 0.0 0.0 0.00 0.00 0.00 79 1018.6
20260509234122 44 0.0 0.0 0.00 0.00 0.00 79 1018.6
20260509233122 44 0.0 0.0 0.00 0.00 0.00 77 1018.8
20260509232122 45 0.0 0.0 0.00 0.00 0.00 76 1018.9
20260509231122 45 0.0 0.0 0.00 0.00 0.00 74 1019.0
20260509223633 46 0.0 0.0 0.00 0.00 0.00 73 1019.3
20260509221409 47 0.0 0.0 0.00 0.00 0.00 72 1019.4
20260509220409 47 0.0 0.0 0.00 0.00 0.00 72 1019.5
20260509215409 47 0.0 0.0 0.00 0.00 0.00 72 1019.5
20260509214409 47 0.0 0.0 0.00 0.00 0.00 72 1019.6
20260509213410 47 0.0 0.0 0.00 0.00 0.00 72 1019.6
20260509212409 47 0.0 0.0 0.00 0.00 0.00 71 1019.6
20260509211409 47 0.0 0.0 0.00 0.00 0.00 71 1019.6
20260509210409 47 0.0 0.0 0.00 0.00 0.00 71 1019.5
20260509205410 47 0.0 0.0 0.00 0.00 0.00 70 1019.5
20260509204409 48 0.0 0.0 0.00 0.00 0.00 70 1019.5
20260509203409 47 0.0 0.0 0.00 0.00 0.00 71 1019.5
20260509201146 48 0.0 0.0 0.00 0.00 0.00 71 1019.4
20260509200145 47 0.0 0.0 0.00 0.00 0.00 72 1019.4
20260509192658 48 0.0 0.0 0.00 0.00 0.00 69 1019.2
20260509191657 49 0.0 0.0 0.00 0.00 0.00 69 1019.3
20260509190658 49 0.0 0.0 0.00 0.00 0.00 67 1019.3
20260509185658 50 0.0 0.0 0.00 0.00 0.00 67 1019.2
20260509184658 50 0.0 0.0 0.00 0.00 0.00 66 1019.1
20260509183657 50 0.0 0.0 0.00 0.00 0.00 66 1019.0
20260509182658 50 0.0 0.0 0.00 0.00 0.00 65 1019.0
20260509181658 51 0.0 0.0 0.00 0.00 0.00 64 1018.9
20260509180658 51 0.0 0.0 0.00 0.00 0.00 62 1018.9
20260509175658 52 0.0 0.0 0.00 0.00 0.00 60 1018.9
20260509174658 53 0.0 0.0 0.00 0.00 0.00 59 1018.8
20260509173657 53 0.0 0.0 0.00 0.00 0.00 57 1018.8
20260509172658 54 0.0 0.0 0.00 0.00 0.00 57 1018.7
20260509170434 54 0.0 0.0 0.00 0.00 0.00 56 1018.7
20260509165434 55 0.0 0.0 0.00 0.00 0.00 56 1018.6
20260509164434 55 0.0 0.0 0.00 0.00 0.00 56 1018.6
20260509163434 55 0.0 0.0 0.00 0.00 0.00 56 1018.5
20260509155946 55 0.0 0.0 0.00 0.00 0.00 58 1018.7
20260509154947 55 0.0 0.0 0.00 0.00 0.00 58 1018.8
20260509153947 55 0.0 0.0 0.00 0.00 0.00 57 1018.8
20260509152947 55 0.0 0.0 0.00 0.00 0.00 57 1018.9
20260509151946 56 0.0 0.0 0.00 0.00 0.00 56 1018.9
20260509150947 56 0.0 0.0 0.00 0.00 0.00 53 1018.9
20260509145947 57 0.0 0.0 0.00 0.00 0.00 49 1018.9
20260509144946 59 0.0 0.0 0.00 0.00 0.00 47 1018.9
20260509143946 59 0.0 0.0 0.00 0.00 0.00 49 1018.8
20260509142946 59 0.0 0.0 0.00 0.00 0.00 49 1018.7
20260509141947 58 0.0 0.0 0.00 0.00 0.00 47 1018.7
20260509135723 60 0.0 0.0 0.00 0.00 0.00 45 1018.6
20260509134723 61 0.0 0.0 0.00 0.00 0.00 44 1018.7
20260509132459 60 0.0 0.0 0.00 0.00 0.00 46 1018.9
20260509131459 62 0.0 0.0 0.00 0.00 0.00 48 1018.9
20260509125236 60 0.0 0.0 0.00 0.00 0.00 42 1019.2
20260509123012 60 0.0 0.0 0.00 0.00 0.00 49 1019.4
20260509122012 58 0.0 0.0 0.00 0.00 0.00 50 1019.5
20260509121012 59 0.0 0.0 0.00 0.00 0.00 47 1019.6
20260509120012 58 0.0 0.0 0.00 0.00 0.00 50 1019.6
20260509115012 57 0.0 0.0 0.00 0.00 0.00 50 1019.7
20260509111525 57 0.0 0.0 0.00 0.00 0.00 53 1019.7
20260509110525 57 0.0 0.0 0.00 0.00 0.00 54 1019.8
20260509105525 57 0.0 0.0 0.00 0.00 0.00 53 1019.9
20260509102038 56 0.0 0.0 0.00 0.00 0.00 59 1019.8
20260509101038 55 0.0 0.0 0.00 0.00 0.00 56 1019.9
20260509100038 55 0.0 0.0 0.00 0.00 0.00 57 1020.0
20260509095038 56 0.0 0.0 0.00 0.00 0.00 58 1019.9
20260509094039 55 0.0 0.0 0.00 0.00 0.00 56 1019.9
20260509093038 55 0.0 0.0 0.00 0.00 0.00 59 1019.9
20260509092037 55 0.0 0.0 0.00 0.00 0.00 60 1019.9
20260509085814 54 0.0 0.0 0.00 0.00 0.00 59 1019.9
20260509084814 55 0.0 0.0 0.00 0.00 0.00 58 1019.9
20260509083814 55 0.0 0.0 0.00 0.00 0.00 57 1020.0
20260509082814 55 0.0 0.0 0.00 0.00 0.00 58 1020.0
20260509080550 56 0.0 0.0 0.00 0.00 0.00 61 1020.0
20260509075550 54 0.0 0.0 0.00 0.00 0.00 62 1020.0
20260509074551 54 0.0 0.0 0.00 0.00 0.00 64 1020.1
20260509073550 51 0.0 0.0 0.00 0.00 0.00 62 1020.2
20260509072550 56 0.0 0.0 0.00 0.00 0.00 60 1020.2
20260509070327 53 0.0 0.0 0.00 0.00 0.00 61 1020.1
20260509065327 52 0.0 0.0 0.00 0.00 0.00 64 1020.0